Date,TemperatureHighF,TemperatureAvgF,TemperatureLowF,DewpointHighF,DewpointAvgF,DewpointLowF,HumidityHigh,HumidityAvg,HumidityLow,PressureMaxIn,PressureMinIn,WindSpeedMaxMPH,WindSpeedAvgMPH,GustSpeedMaxMPH,PrecipitationSumIn
2013-1-1,61,55,50,-100,-100,-100,0,0,100,0.00,40.00,0,-999,0,0.00
2013-1-2,51,47,44,-100,-100,-100,0,0,100,0.00,40.00,0,-999,0,0.00
2013-1-3,57,49,41,-100,-100,-100,0,0,100,0.00,40.00,0,-999,0,0.00
2013-1-4,54,48,43,-100,-100,-100,0,0,100,0.00,40.00,0,-999,0,0.00
2013-1-5,49,47,44,-100,-100,-100,0,0,100,0.00,40.00,0,-999,0,0.00
2013-1-6,60,50,41,-100,-100,-100,0,0,100,0.00,40.00,0,-999,0,0.00
2013-1-7,65,48,33,-100,-100,-100,0,0,100,0.00,40.00,0,-999,0,0.00
2013-1-8,62,53,46,-100,-100,-100,0,0,100,0.00,40.00,0,-999,0,0.00
2013-1-9,67,65,62,-100,-100,-100,0,0,100,0.00,40.00,0,-999,0,0.00
2013-1-10,67,66,64,-100,-100,-100,0,0,100,0.00,40.00,0,-999,0,0.00
2013-1-11,75,64,51,-100,-100,-100,0,0,100,0.00,40.00,0,-999,0,0.00
2013-1-12,77,72,66,-100,-100,-100,0,0,100,0.00,40.00,0,-999,0,0.00
2013-1-13,74,53,47,-100,-100,-100,0,0,100,0.00,40.00,0,-999,0,0.00
2013-1-14,47,41,38,-100,-100,-100,0,0,100,0.00,40.00,0,-999,0,0.00
2013-1-15,40,38,37,-100,-100,-100,0,0,100,0.00,40.00,0,-999,0,0.00
2013-1-16,43,40,36,-100,-100,-100,0,0,100,0.00,40.00,0,-999,0,0.00
2013-1-17,62,43,32,-100,-100,-100,0,0,100,0.00,40.00,0,-999,0,0.00
2013-1-18,91,48,33,-100,-100,-100,0,0,100,0.00,40.00,0,-999,0,0.00
2013-1-19,62,45,32,-100,-100,-100,0,0,100,0.00,40.00,0,-999,0,0.00
2013-1-20,68,48,35,-100,-100,-100,0,0,100,0.00,40.00,0,-999,0,0.00
2013-1-21,69,52,40,-100,-100,-100,0,0,100,0.00,40.00,0,-999,0,0.00
2013-1-22,65,48,38,-100,-100,-100,0,0,100,0.00,40.00,0,-999,0,0.00
2013-1-23,75,54,43,-100,-100,-100,0,0,100,0.00,40.00,0,-999,0,0.00
2013-1-24,73,62,54,-100,-100,-100,0,0,100,0.00,40.00,0,-999,0,0.00
2013-1-25,78,67,59,-100,-100,-100,0,0,100,0.00,40.00,0,-999,0,0.00
2013-1-26,71,62,58,-100,-100,-100,0,0,100,0.00,40.00,0,-999,0,0.00
2013-1-27,76,66,52,-100,-100,-100,0,0,100,0.00,40.00,0,-999,0,0.00
2013-1-28,76,71,67,-100,-100,-100,0,0,100,0.00,40.00,0,-999,0,0.00
2013-1-29,76,71,69,-100,-100,-100,0,0,100,0.00,40.00,0,-999,0,0.00
2013-1-30,60,55,44,-100,-100,-100,0,0,100,0.00,40.00,0,-999,0,0.00
2013-1-31,64,52,39,-100,-100,-100,0,0,100,0.00,40.00,0,-999,0,0.00
2013-2-1,62,49,43,-100,-100,-100,0,0,100,0.00,40.00,0,-999,0,0.00
2013-2-2,73,52,38,-100,-100,-100,0,0,100,0.00,40.00,0,-999,0,0.00
2013-2-3,75,56,42,-100,-100,-100,0,0,100,0.00,40.00,0,-999,0,0.00
2013-2-4,63,55,47,-100,-100,-100,0,0,100,0.00,40.00,0,-999,0,0.00
2013-2-5,68,61,54,-100,-100,-100,0,0,100,0.00,40.00,0,-999,0,0.00
2013-2-6,70,58,51,-100,-100,-100,0,0,100,0.00,40.00,0,-999,0,0.00
2013-2-7,69,64,60,-100,-100,-100,0,0,100,0.00,40.00,0,-999,0,0.00
2013-2-8,65,61,51,-100,-100,-100,0,0,100,0.00,40.00,0,-999,0,0.00
2013-2-9,64,52,43,-100,-100,-100,0,0,100,0.00,40.00,0,-999,0,0.00
2013-2-10,72,66,62,-100,-100,-100,0,0,100,0.00,40.00,0,-999,0,0.00
2013-2-11,63,56,54,-100,-100,-100,0,0,100,0.00,40.00,0,-999,0,0.00
2013-2-12,58,55,54,-100,-100,-100,0,0,100,0.00,40.00,0,-999,0,0.00
2013-2-13,57,51,44,-100,-100,-100,0,0,100,0.00,40.00,0,-999,0,0.00
2013-2-14,66,49,35,-100,-100,-100,0,0,100,0.00,40.00,0,-999,0,0.00
2013-2-15,72,51,38,-100,-100,-100,0,0,100,0.00,40.00,0,-999,0,0.00
2013-2-16,54,47,40,-100,-100,-100,0,0,100,0.00,40.00,0,-999,0,0.00
2013-2-17,69,52,35,-100,-100,-100,0,0,100,0.00,40.00,0,-999,0,0.00
2013-2-18,69,61,54,-100,-100,-100,0,0,100,0.00,40.00,0,-999,0,0.00
2013-2-19,69,55,46,-100,-100,-100,0,0,100,0.00,40.00,0,-999,0,0.00
2013-2-20,60,54,48,-100,-100,-100,0,0,100,0.00,40.00,0,-999,0,0.00
2013-2-21,69,62,54,-100,-100,-100,0,0,100,0.00,40.00,0,-999,0,0.00
2013-2-22,68,58,51,-100,-100,-100,0,0,100,0.00,40.00,0,-999,0,0.00
2013-2-23,68,56,46,-100,-100,-100,0,0,100,0.00,40.00,0,-999,0,0.00
2013-2-24,73,58,40,-100,-100,-100,0,0,100,0.00,40.00,0,-999,0,0.00
2013-2-25,71,63,58,-100,-100,-100,0,0,100,0.00,40.00,0,-999,0,0.00
2013-2-26,62,52,43,-100,-100,-100,0,0,100,0.00,40.00,0,-999,0,0.00
2013-2-27,69,53,37,-100,-100,-100,0,0,100,0.00,40.00,0,-999,0,0.00
2013-2-28,61,50,42,-100,-100,-100,0,0,100,0.00,40.00,0,-999,0,0.00
2013-3-1,62,49,36,-100,-100,-100,0,0,100,0.00,40.00,0,-999,0,0.00
2013-3-2,53,41,35,-100,-100,-100,0,0,100,0.00,40.00,0,-999,0,0.00
2013-3-3,63,49,31,-100,-100,-100,0,0,100,0.00,40.00,0,-999,0,0.00
2013-3-4,76,63,48,-100,-100,-100,0,0,100,0.00,40.00,0,-999,0,0.00
2013-3-5,72,65,56,-100,-100,-100,0,0,100,0.00,40.00,0,-999,0,0.00
2013-3-6,65,49,38,-100,-100,-100,0,0,100,0.00,40.00,0,-999,0,0.00
2013-3-7,73,53,36,-100,-100,-100,0,0,100,0.00,40.00,0,-999,0,0.00
2013-3-8,72,59,38,-100,-100,-100,0,0,100,0.00,40.00,0,-999,0,0.00
2013-3-9,72,64,55,-100,-100,-100,0,0,100,0.00,40.00,0,-999,0,0.00
2013-3-10,69,62,54,-100,-100,-100,0,0,100,0.00,40.00,0,-999,0,0.00
2013-3-11,64,52,41,-100,-100,-100,0,0,100,0.00,40.00,0,-999,0,0.00
2013-3-12,74,49,35,-100,-100,-100,0,0,100,0.00,40.00,0,-999,0,0.00
2013-3-13,72,53,39,-100,-100,-100,0,0,100,0.00,40.00,0,-999,0,0.00
2013-3-14,74,56,37,-100,-100,-100,0,0,100,0.00,40.00,0,-999,0,0.00
2013-3-15,80,67,46,-100,-100,-100,0,0,100,0.00,40.00,0,-999,0,0.00
2013-3-16,83,68,57,-100,-100,-100,0,0,100,0.00,40.00,0,-999,0,0.00
2013-3-17,79,68,55,-100,-100,-100,0,0,100,0.00,40.00,0,-999,0,0.00
2013-3-18,88,75,65,-100,-100,-100,0,0,100,0.00,40.00,0,-999,0,0.00
2013-3-19,79,64,51,-100,-100,-100,0,0,100,0.00,40.00,0,-999,0,0.00
2013-3-20,79,61,52,-100,-100,-100,0,0,100,0.00,40.00,0,-999,0,0.00
2013-3-21,66,55,45,-100,-100,-100,0,0,100,0.00,40.00,0,-999,0,0.00
2013-3-22,79,67,60,-100,-100,-100,0,0,100,0.00,40.00,0,-999,0,0.00
2013-3-23,76,67,62,-100,-100,-100,0,0,100,0.00,40.00,0,-999,0,0.00
2013-3-24,60,57,47,-100,-100,-100,0,0,100,0.00,40.00,0,-999,0,0.00
2013-3-25,64,50,38,-100,-100,-100,0,0,100,0.00,40.00,0,-999,0,0.00
2013-3-26,57,56,55,-100,-100,-100,0,0,100,0.00,40.00,0,-999,0,0.00
2013-3-27,66,63,56,-100,-100,-100,0,0,100,0.00,40.00,0,-999,0,0.00
2013-3-28,71,64,61,-100,-100,-100,0,0,100,0.00,40.00,0,-999,0,0.00
2013-3-29,76,69,58,-100,-100,-100,0,0,100,0.00,40.00,0,-999,0,0.00
2013-3-30,76,69,62,-100,-100,-100,0,0,100,0.00,40.00,0,-999,0,0.00
2013-4-2,80,71,52,-100,-100,-100,0,0,100,0.00,40.00,0,-999,0,0.00
2013-4-3,64,53,50,-100,-100,-100,0,0,100,0.00,40.00,0,-999,0,0.00
2013-4-4,52,50,48,-100,-100,-100,0,0,100,0.00,40.00,0,-999,0,0.00
2013-4-5,80,59,46,-100,-100,-100,0,0,100,0.00,40.00,0,-999,0,0.00
2013-4-6,76,61,49,-100,-100,-100,0,0,100,0.00,40.00,0,-999,0,0.00
2013-4-7,77,68,58,-100,-100,-100,0,0,100,0.00,40.00,0,-999,0,0.00
2013-4-8,80,73,66,-100,-100,-100,0,0,100,0.00,40.00,0,-999,0,0.00
2013-4-9,83,76,69,-100,-100,-100,0,0,100,0.00,40.00,0,-999,0,0.00
2013-4-10,83,78,75,-100,-100,-100,0,0,100,0.00,40.00,0,-999,0,0.00
2013-4-11,65,54,49,-100,-100,-100,0,0,100,0.00,40.00,0,-999,0,0.00
2013-4-12,80,60,44,-100,-100,-100,0,0,100,0.00,40.00,0,-999,0,0.00
2013-4-13,83,68,49,-100,-100,-100,0,0,100,0.00,40.00,0,-999,0,0.00
2013-4-14,77,67,58,-100,-100,-100,0,0,100,0.00,40.00,0,-999,0,0.00
2013-4-15,88,74,66,-100,-100,-100,0,0,100,0.00,40.00,0,-999,0,0.00
2013-4-16,82,78,75,-100,-100,-100,0,0,100,0.00,40.00,0,-999,0,0.00
2013-4-17,87,81,75,-100,-100,-100,0,0,100,0.00,40.00,0,-999,0,0.00
2013-4-18,82,73,52,-100,-100,-100,0,0,100,0.00,40.00,0,-999,0,0.00
2013-4-19,65,53,46,-100,-100,-100,0,0,100,0.00,40.00,0,-999,0,0.00
2013-4-20,72,55,40,-100,-100,-100,0,0,100,0.00,40.00,0,-999,0,0.00
2013-4-21,76,61,46,-100,-100,-100,0,0,100,0.00,40.00,0,-999,0,0.00
2013-4-22,81,64,50,-100,-100,-100,0,0,100,0.00,40.00,0,-999,0,0.00
2013-4-23,83,73,59,-100,-100,-100,0,0,100,0.00,40.00,0,-999,0,0.00
2013-4-24,74,63,53,-100,-100,-100,0,0,100,0.00,40.00,0,-999,0,0.00
2013-4-25,77,63,52,-100,-100,-100,0,0,100,0.00,40.00,0,-999,0,0.00
2013-4-26,75,66,54,-100,-100,-100,0,0,100,0.00,40.00,0,-999,0,0.00
2013-4-27,81,76,69,-100,-100,-100,0,0,100,0.00,40.00,0,-999,0,0.00
2013-4-28,89,74,68,-100,-100,-100,0,0,100,0.00,40.00,0,-999,0,0.00
2013-4-29,88,71,62,-100,-100,-100,0,0,100,0.00,40.00,0,-999,0,0.00
2013-4-30,80,72,60,-100,-100,-100,0,0,100,0.00,40.00,0,-999,0,0.00
2013-5-1,88,74,68,-100,-100,-100,0,0,100,0.00,40.00,0,-999,0,0.00
2013-5-2,75,71,67,-100,-100,-100,0,0,100,0.00,40.00,0,-999,0,0.00
2013-5-3,65,54,47,-100,-100,-100,0,0,100,0.00,40.00,0,-999,0,0.00
2013-5-4,79,61,40,-100,-100,-100,0,0,100,0.00,40.00,0,-999,0,0.00
2013-5-5,72,58,45,-100,-100,-100,0,0,100,0.00,40.00,0,-999,0,0.00
2013-5-6,80,61,47,-100,-100,-100,0,0,100,0.00,40.00,0,-999,0,0.00
2013-5-7,90,73,57,-100,-100,-100,0,0,100,0.00,40.00,0,-999,0,0.00
2013-5-8,84,70,56,-100,-100,-100,0,0,100,0.00,40.00,0,-999,0,0.00
2013-5-9,80,74,65,-100,-100,-100,0,0,100,0.00,40.00,0,-999,0,0.00
2013-5-10,80,73,68,-100,-100,-100,0,0,100,0.00,40.00,0,-999,0,0.00
2013-5-11,87,76,67,-100,-100,-100,0,0,100,0.00,40.00,0,-999,0,0.00
2013-5-12,83,70,59,-100,-100,-100,0,0,100,0.00,40.00,0,-999,0,0.00
2013-5-13,83,66,51,-100,-100,-100,0,0,100,0.00,40.00,0,-999,0,0.00
2013-5-14,89,76,62,-100,-100,-100,0,0,100,0.00,40.00,0,-999,0,0.00
2013-5-15,84,71,61,-100,-100,-100,0,0,100,0.00,40.00,0,-999,0,0.00
2013-5-16,84,74,69,-100,-100,-100,0,0,100,0.00,40.00,0,-999,0,0.00
2013-5-17,90,81,73,-100,-100,-100,0,0,100,0.00,40.00,0,-999,0,0.00
2013-5-18,91,82,76,-100,-100,-100,0,0,100,0.00,40.00,0,-999,0,0.00
2013-5-19,91,81,75,-100,-100,-100,0,0,100,0.00,40.00,0,-999,0,0.00
2013-5-20,91,82,77,-100,-100,-100,0,0,100,0.00,40.00,0,-999,0,0.00
2013-5-21,91,84,77,-100,-100,-100,0,0,100,0.00,40.00,0,-999,0,0.00
2013-5-22,69,69,69,-100,-100,-100,0,0,100,0.00,40.00,0,-999,0,0.00
2013-5-23,93,87,75,-100,-100,-100,0,0,100,0.00,40.00,0,-999,0,0.00
2013-5-24,90,80,69,-100,-100,-100,0,0,100,0.00,40.00,0,-999,0,0.00
2013-5-25,89,81,72,-100,-100,-100,0,0,100,0.00,40.00,0,-999,0,0.00
2013-5-26,87,79,73,-100,-100,-100,0,0,100,0.00,40.00,0,-999,0,0.00
2013-5-27,91,81,73,-100,-100,-100,0,0,100,0.00,40.00,0,-999,0,0.00
2013-5-28,91,82,73,-100,-100,-100,0,0,100,0.00,40.00,0,-999,0,0.00
2013-5-29,88,79,71,-100,-100,-100,0,0,100,0.00,40.00,0,-999,0,0.00
2013-5-30,93,83,76,-100,-100,-100,0,0,100,0.00,40.00,0,-999,0,0.00
2013-5-31,90,83,77,-100,-100,-100,0,0,100,0.00,40.00,0,-999,0,0.00
2013-6-1,94,85,80,-100,-100,-100,0,0,100,0.00,40.00,0,-999,0,0.00
2013-6-2,87,79,72,-100,-100,-100,0,0,100,0.00,40.00,0,-999,0,0.00
2013-6-3,92,81,72,-100,-100,-100,0,0,100,0.00,40.00,0,-999,0,0.00
2013-6-4,94,81,71,-100,-100,-100,0,0,100,0.00,40.00,0,-999,0,0.00
2013-6-5,98,87,75,-100,-100,-100,0,0,100,0.00,40.00,0,-999,0,0.00
2013-6-6,82,77,73,-100,-100,-100,0,0,100,0.00,40.00,0,-999,0,0.00
2013-6-7,87,78,72,-100,-100,-100,0,0,100,0.00,40.00,0,-999,0,0.00
2013-6-8,92,77,70,-100,-100,-100,0,0,100,0.00,40.00,0,-999,0,0.00
2013-6-9,91,77,69,-100,-100,-100,0,0,100,0.00,40.00,0,-999,0,0.00
2013-6-10,98,82,68,-100,-100,-100,0,0,100,0.00,40.00,0,-999,0,0.00
2013-6-11,98,85,73,-100,-100,-100,0,0,100,0.00,40.00,0,-999,0,0.00
2013-6-12,97,86,76,-100,-100,-100,0,0,100,0.00,40.00,0,-999,0,0.00
2013-6-13,98,85,77,-100,-100,-100,0,0,100,0.00,40.00,0,-999,0,0.00
2013-6-14,100,87,78,-100,-100,-100,0,0,100,0.00,40.00,0,-999,0,0.00
2013-6-15,95,82,70,-100,-100,-100,0,0,100,0.00,40.00,0,-999,0,0.00
2013-6-16,98,88,77,-100,-100,-100,0,0,100,0.00,40.00,0,-999,0,0.00
2013-6-17,94,87,77,-100,-100,-100,0,0,100,0.00,40.00,0,-999,0,0.00
2013-6-18,94,81,76,-100,-100,-100,0,0,100,0.00,40.00,0,-999,0,0.00
2013-6-19,88,78,73,-100,-100,-100,0,0,100,0.00,40.00,0,-999,0,0.00
2013-6-20,96,82,73,-100,-100,-100,0,0,100,0.00,40.00,0,-999,0,0.00
2013-6-22,95,92,84,-100,-100,-100,0,0,100,0.00,40.00,0,-999,0,0.00
2013-6-23,95,86,76,-100,-100,-100,0,0,100,0.00,40.00,0,-999,0,0.00
2013-6-24,95,83,76,-100,-100,-100,0,0,100,0.00,40.00,0,-999,0,0.00
2013-6-25,95,83,75,-100,-100,-100,0,0,100,0.00,40.00,0,-999,0,0.00
2013-6-26,98,89,78,-100,-100,-100,0,0,100,0.00,40.00,0,-999,0,0.00
2013-6-27,100,85,76,-100,-100,-100,0,0,100,0.00,40.00,0,-999,0,0.00
2013-6-28,98,85,79,-100,-100,-100,0,0,100,0.00,40.00,0,-999,0,0.00
2013-6-29,102,88,78,-100,-100,-100,0,0,100,0.00,40.00,0,-999,0,0.00
2013-6-30,96,81,69,-100,-100,-100,0,0,100,0.00,40.00,0,-999,0,0.00
2013-7-1,93,81,66,-100,-100,-100,0,0,100,0.00,40.00,0,-999,0,0.00
2013-7-2,94,76,67,-100,-100,-100,0,0,100,0.00,40.00,0,-999,0,0.00
2013-7-3,94,78,66,-100,-100,-100,0,0,100,0.00,40.00,0,-999,0,0.00
2013-7-4,96,78,68,-100,-100,-100,0,0,100,0.00,40.00,0,-999,0,0.00
2013-7-5,100,83,69,-100,-100,-100,0,0,100,0.00,40.00,0,-999,0,0.00
2013-7-6,95,80,73,-100,-100,-100,0,0,100,0.00,40.00,0,-999,0,0.00
2013-7-7,92,82,76,-100,-100,-100,0,0,100,0.00,40.00,0,-999,0,0.00
2013-7-8,94,80,75,-100,-100,-100,0,0,100,0.00,40.00,0,-999,0,0.00
2013-7-9,100,89,77,-100,-100,-100,0,0,100,0.00,40.00,0,-999,0,0.00
2013-7-10,98,86,76,-100,-100,-100,0,0,100,0.00,40.00,0,-999,0,0.00
2013-7-11,90,84,80,-100,-100,-100,0,0,100,0.00,40.00,0,-999,0,0.00
2013-7-12,102,87,76,-100,-100,-100,0,0,100,0.00,40.00,0,-999,0,0.00
2013-7-13,98,83,68,-100,-100,-100,0,0,100,0.00,40.00,0,-999,0,0.00
2013-7-14,91,78,69,-100,-100,-100,0,0,100,0.00,40.00,0,-999,0,0.00
2013-7-15,95,80,73,-100,-100,-100,0,0,100,0.00,40.00,0,-999,0,0.00
2013-7-16,93,83,73,-100,-100,-100,0,0,100,0.00,40.00,0,-999,0,0.00
2013-7-17,95,85,76,-100,-100,-100,0,0,100,0.00,40.00,0,-999,0,0.00
2013-7-18,94,82,76,-100,-100,-100,0,0,100,0.00,40.00,0,-999,0,0.00
2013-7-24,95,81,76,-100,-100,-100,0,0,100,0.00,40.00,0,-999,0,0.00
2013-7-25,98,85,74,-100,-100,-100,0,0,100,0.00,40.00,0,-999,0,0.00
2013-7-26,94,85,76,-100,-100,-100,0,0,100,0.00,40.00,0,-999,0,0.00
2013-7-27,87,82,76,-100,-100,-100,0,0,100,0.00,40.00,0,-999,0,0.00
2013-7-28,94,84,72,-100,-100,-100,0,0,100,0.00,40.00,0,-999,0,0.00
2013-7-29,98,85,76,-100,-100,-100,0,0,100,0.00,40.00,0,-999,0,0.00
2013-7-30,96,86,74,-100,-100,-100,0,0,100,0.00,40.00,0,-999,0,0.00
2013-7-31,102,86,76,-100,-100,-100,0,0,100,0.00,40.00,0,-999,0,0.00
2013-8-1,96,85,80,-100,-100,-100,0,0,100,0.00,40.00,0,-999,0,0.00
2013-8-2,99,86,77,-100,-100,-100,0,0,100,0.00,40.00,0,-999,0,0.00
2013-8-3,99,88,79,-100,-100,-100,0,0,100,0.00,40.00,0,-999,0,0.00
2013-8-4,98,87,77,-100,-100,-100,0,0,100,0.00,40.00,0,-999,0,0.00
2013-8-5,101,88,80,-100,-100,-100,0,0,100,0.00,40.00,0,-999,0,0.00
2013-8-6,102,89,80,-100,-100,-100,0,0,100,0.00,40.00,0,-999,0,0.00
2013-8-7,102,89,80,-100,-100,-100,0,0,100,0.00,40.00,0,-999,0,0.00
2013-8-8,100,87,79,-100,-100,-100,0,0,100,0.00,40.00,0,-999,0,0.00
2013-8-9,98,87,76,-100,-100,-100,0,0,100,0.00,40.00,0,-999,0,0.00
2013-8-10,98,85,77,-100,-100,-100,0,0,100,0.00,40.00,0,-999,0,0.00
2013-8-11,97,82,78,-100,-100,-100,0,0,100,0.00,40.00,0,-999,0,0.00
2013-8-12,89,82,77,-100,-100,-100,0,0,100,0.00,40.00,0,-999,0,0.00
2013-8-13,101,87,76,-100,-100,-100,0,0,100,0.00,40.00,0,-999,0,0.00
2013-8-14,83,79,75,-100,-100,-100,0,0,100,0.00,40.00,0,-999,0,0.00
2013-8-15,91,78,69,-100,-100,-100,0,0,100,0.00,40.00,0,-999,0,0.00
2013-8-16,90,79,70,-100,-100,-100,0,0,100,0.00,40.00,0,-999,0,0.00
2013-8-17,93,79,67,-100,-100,-100,0,0,100,0.00,40.00,0,-999,0,0.00
2013-8-18,94,80,73,-100,-100,-100,0,0,100,0.00,40.00,0,-999,0,0.00
2013-8-19,95,79,69,-100,-100,-100,0,0,100,0.00,40.00,0,-999,0,0.00
2013-8-20,94,79,69,-100,-100,-100,0,0,100,0.00,40.00,0,-999,0,0.00
2013-8-21,96,84,76,-100,-100,-100,0,0,100,0.00,40.00,0,-999,0,0.00
2013-8-22,97,85,73,-100,-100,-100,0,0,100,0.00,40.00,0,-999,0,0.00
2013-8-23,99,86,75,-100,-100,-100,0,0,100,0.00,40.00,0,-999,0,0.00
2013-8-24,97,85,74,-100,-100,-100,0,0,100,0.00,40.00,0,-999,0,0.00
2013-8-25,93,83,75,-100,-100,-100,0,0,100,0.00,40.00,0,-999,0,0.00
2013-8-26,91,82,76,-100,-100,-100,0,0,100,0.00,40.00,0,-999,0,0.00
2013-8-27,91,80,73,-100,-100,-100,0,0,100,0.00,40.00,0,-999,0,0.00
2013-8-28,99,92,80,-100,-100,-100,0,0,100,0.00,40.00,0,-999,0,0.00
2013-8-29,96,84,72,-100,-100,-100,0,0,100,0.00,40.00,0,-999,0,0.00
2013-8-30,98,84,73,-100,-100,-100,0,0,100,0.00,40.00,0,-999,0,0.00
2013-8-31,99,86,73,-100,-100,-100,0,0,100,0.00,40.00,0,-999,0,0.00
2013-9-1,98,85,73,-100,-100,-100,0,0,100,0.00,40.00,0,-999,0,0.00
2013-9-2,99,91,78,-100,-100,-100,0,0,100,0.00,40.00,0,-999,0,0.00
2013-9-3,101,87,80,-100,-100,-100,0,0,100,0.00,40.00,0,-999,0,0.00
2013-9-4,98,85,76,-100,-100,-100,0,0,100,0.00,40.00,0,-999,0,0.00
2013-9-5,100,88,73,-100,-100,-100,0,0,100,0.00,40.00,0,-999,0,0.00
2013-9-6,98,87,73,-100,-100,-100,0,0,100,0.00,40.00,0,-999,0,0.00
2013-9-7,99,85,72,-100,-100,-100,0,0,100,0.00,40.00,0,-999,0,0.00
2013-9-8,94,84,72,-100,-100,-100,0,0,100,0.00,40.00,0,-999,0,0.00
2013-9-9,95,83,70,-100,-100,-100,0,0,100,0.00,40.00,0,-999,0,0.00
2013-9-10,97,85,70,-100,-100,-100,0,0,100,0.00,40.00,0,-999,0,0.00
2013-9-11,94,86,74,-100,-100,-100,0,0,100,0.00,40.00,0,-999,0,0.00
2013-9-12,100,84,71,-100,-100,-100,0,0,100,0.00,40.00,0,-999,0,0.00
2013-9-13,99,83,73,-100,-100,-100,0,0,100,0.00,40.00,0,-999,0,0.00
2013-9-14,94,83,71,-100,-100,-100,0,0,100,0.00,40.00,0,-999,0,0.00
2013-9-15,97,82,69,-100,-100,-100,0,0,100,0.00,40.00,0,-999,0,0.00
2013-9-16,99,84,73,-100,-100,-100,0,0,100,0.00,40.00,0,-999,0,0.00
2013-9-17,96,86,73,-100,-100,-100,0,0,100,0.00,40.00,0,-999,0,0.00
2013-9-18,85,79,77,-100,-100,-100,0,0,100,0.00,40.00,0,-999,0,0.00
2013-9-19,96,85,77,-100,-100,-100,0,0,100,0.00,40.00,0,-999,0,0.00
2013-9-20,85,79,77,-100,-100,-100,0,0,100,0.00,40.00,0,-999,0,0.00
2013-9-21,80,75,70,-100,-100,-100,0,0,100,0.00,40.00,0,-999,0,0.00
2013-9-22,87,70,63,-100,-100,-100,0,0,100,0.00,40.00,0,-999,0,0.00
2013-9-23,90,74,59,-100,-100,-100,0,0,100,0.00,40.00,0,-999,0,0.00
2013-9-24,90,80,74,-100,-100,-100,0,0,100,0.00,40.00,0,-999,0,0.00
2013-9-25,95,77,68,-100,-100,-100,0,0,100,0.00,40.00,0,-999,0,0.00
2013-9-26,94,74,61,-100,-100,-100,0,0,100,0.00,40.00,0,-999,0,0.00
2013-9-27,88,77,66,-100,-100,-100,0,0,100,0.00,40.00,0,-999,0,0.00
2013-9-28,88,78,67,-100,-100,-100,0,0,100,0.00,40.00,0,-999,0,0.00
2013-9-29,78,75,74,-100,-100,-100,0,0,100,0.00,40.00,0,-999,0,0.00
2013-9-30,81,77,72,-100,-100,-100,0,0,100,0.00,40.00,0,-999,0,0.00
2013-10-1,77,77,77,-100,-100,-100,0,0,100,0.00,40.00,0,-999,0,0.00
2013-10-2,88,79,73,-100,-100,-100,0,0,100,0.00,40.00,0,-999,0,0.00
2013-10-3,83,78,74,-100,-100,-100,0,0,100,0.00,40.00,0,-999,0,0.00
2013-10-4,89,82,75,-100,-100,-100,0,0,100,0.00,40.00,0,-999,0,0.00
2013-10-5,89,80,73,-100,-100,-100,0,0,100,0.00,40.00,0,-999,0,0.00
2013-10-6,75,68,62,-100,-100,-100,0,0,100,0.00,40.00,0,-999,0,0.00
2013-10-7,78,68,58,-100,-100,-100,0,0,100,0.00,40.00,0,-999,0,0.00
2013-10-8,77,62,54,-100,-100,-100,0,0,100,0.00,40.00,0,-999,0,0.00
2013-10-9,82,67,52,-100,-100,-100,0,0,100,0.00,40.00,0,-999,0,0.00
2013-10-10,83,70,57,-100,-100,-100,0,0,100,0.00,40.00,0,-999,0,0.00
2013-10-11,83,71,59,-100,-100,-100,0,0,100,0.00,40.00,0,-999,0,0.00
2013-10-12,87,78,69,-100,-100,-100,0,0,100,0.00,40.00,0,-999,0,0.00
2013-10-13,86,76,70,-100,-100,-100,0,0,100,0.00,40.00,0,-999,0,0.00
2013-10-14,83,77,73,-100,-100,-100,0,0,100,0.00,40.00,0,-999,0,0.00
2013-10-15,85,80,73,-100,-100,-100,0,0,100,0.00,40.00,0,-999,0,0.00
2013-10-16,77,74,66,-100,-100,-100,0,0,100,0.00,40.00,0,-999,0,0.00
2013-10-17,76,67,62,-100,-100,-100,0,0,100,0.00,40.00,0,-999,0,0.00
2013-10-18,73,62,54,-100,-100,-100,0,0,100,0.00,40.00,0,-999,0,0.00
2013-10-19,67,62,52,-100,-100,-100,0,0,100,0.00,40.00,0,-999,0,0.00
2013-10-20,71,55,47,-100,-100,-100,0,0,100,0.00,40.00,0,-999,0,0.00
2013-10-21,76,64,51,-100,-100,-100,0,0,100,0.00,40.00,0,-999,0,0.00
2013-10-22,72,64,59,-100,-100,-100,0,0,100,0.00,40.00,0,-999,0,0.00
2013-10-23,76,66,53,-100,-100,-100,0,0,100,0.00,40.00,0,-999,0,0.00
2013-10-24,81,66,54,-100,-100,-100,0,0,100,0.00,40.00,0,-999,0,0.00
2013-10-25,69,60,53,-100,-100,-100,0,0,100,0.00,40.00,0,-999,0,0.00
2013-10-26,76,62,44,-100,-100,-100,0,0,100,0.00,40.00,0,-999,0,0.00
2013-10-27,77,68,58,-100,-100,-100,0,0,100,0.00,40.00,0,-999,0,0.00
2013-10-28,79,71,63,-100,-100,-100,0,0,100,0.00,40.00,0,-999,0,0.00
2013-10-29,80,74,65,-100,-100,-100,0,0,100,0.00,40.00,0,-999,0,0.00
2013-10-30,76,72,68,-100,-100,-100,0,0,100,0.00,40.00,0,-999,0,0.00
2013-10-31,76,71,66,-100,-100,-100,0,0,100,0.00,40.00,0,-999,0,0.00
2013-11-1,73,66,54,-100,-100,-100,0,0,100,0.00,40.00,0,-999,0,0.00
2013-11-2,71,60,55,-100,-100,-100,0,0,100,0.00,40.00,0,-999,0,0.00
2013-11-3,65,54,45,-100,-100,-100,0,0,100,0.00,40.00,0,-999,0,0.00
2013-11-4,74,64,47,-100,-100,-100,0,0,100,0.00,40.00,0,-999,0,0.00
2013-11-5,77,69,62,-100,-100,-100,0,0,100,0.00,40.00,0,-999,0,0.00
2013-11-6,76,70,61,-100,-100,-100,0,0,100,0.00,40.00,0,-999,0,0.00
2013-11-7,64,55,47,-100,-100,-100,0,0,100,0.00,40.00,0,-999,0,0.00
2013-11-8,63,53,44,-100,-100,-100,0,0,100,0.00,40.00,0,-999,0,0.00
2013-11-9,64,56,51,-100,-100,-100,0,0,100,0.00,40.00,0,-999,0,0.00
2013-11-10,74,58,52,-100,-100,-100,0,0,100,0.00,40.00,0,-999,0,0.00
2013-11-11,77,60,46,-100,-100,-100,0,0,100,0.00,40.00,0,-999,0,0.00
2013-11-12,65,54,43,-100,-100,-100,0,0,100,0.00,40.00,0,-999,0,0.00
2013-11-13,55,38,35,-100,-100,-100,0,0,100,0.00,40.00,0,-999,0,0.00
2013-11-14,60,47,32,-100,-100,-100,0,0,100,0.00,40.00,0,-999,0,0.00
2013-11-15,73,60,50,-100,-100,-100,0,0,100,0.00,40.00,0,-999,0,0.00
2013-11-16,79,68,61,-100,-100,-100,0,0,100,0.00,40.00,0,-999,0,0.00
2013-11-17,83,76,72,-100,-100,-100,0,0,100,0.00,40.00,0,-999,0,0.00
2013-11-18,76,71,57,-100,-100,-100,0,0,100,0.00,40.00,0,-999,0,0.00
2013-11-19,67,59,47,-100,-100,-100,0,0,100,0.00,40.00,0,-999,0,0.00
2013-11-20,73,56,43,-100,-100,-100,0,0,100,0.00,40.00,0,-999,0,0.00
2013-11-21,74,68,50,-100,-100,-100,0,0,100,0.00,40.00,0,-999,0,0.00
2013-11-22,72,70,64,-100,-100,-100,0,0,100,0.00,40.00,0,-999,0,0.00
2013-11-23,61,51,44,-100,-100,-100,0,0,100,0.00,40.00,0,-999,0,0.00
2013-11-24,51,45,37,-100,-100,-100,0,0,100,0.00,40.00,0,-999,0,0.00
2013-11-25,43,42,40,-100,-100,-100,0,0,100,0.00,40.00,0,-999,0,0.00
2013-11-26,44,43,42,-100,-100,-100,0,0,100,0.00,40.00,0,-999,0,0.00
2013-11-27,48,42,34,-100,-100,-100,0,0,100,0.00,40.00,0,-999,0,0.00
2013-11-28,52,38,31,-100,-100,-100,0,0,100,0.00,40.00,0,-999,0,0.00
2013-11-29,59,44,29,-100,-100,-100,0,0,100,0.00,40.00,0,-999,0,0.00
2013-11-30,65,46,33,-100,-100,-100,0,0,100,0.00,40.00,0,-999,0,0.00
2013-12-1,69,59,44,-100,-100,-100,0,0,100,0.00,40.00,0,-999,0,0.00
2013-12-2,73,66,59,-100,-100,-100,0,0,100,0.00,40.00,0,-999,0,0.00
2013-12-3,77,70,58,-100,-100,-100,0,0,100,0.00,40.00,0,-999,0,0.00
2013-12-4,80,73,67,-100,-100,-100,0,0,100,0.00,40.00,0,-999,0,0.00
2013-12-5,77,68,52,-100,-100,-100,0,0,100,0.00,40.00,0,-999,0,0.00
2013-12-6,47,45,41,-100,-100,-100,0,0,100,0.00,40.00,0,-999,0,0.00
2013-12-7,40,38,36,-100,-100,-100,0,0,100,0.00,40.00,0,-999,0,0.00
2013-12-8,47,41,36,-100,-100,-100,0,0,100,0.00,40.00,0,-999,0,0.00
2013-12-9,47,44,41,-100,-100,-100,0,0,100,0.00,40.00,0,-999,0,0.00
2013-12-10,51,43,39,-100,-100,-100,0,0,100,0.00,40.00,0,-999,0,0.00
2013-12-11,58,43,33,-100,-100,-100,0,0,100,0.00,40.00,0,-999,0,0.00
2013-12-12,54,43,33,-100,-100,-100,0,0,100,0.00,40.00,0,-999,0,0.00
2013-12-13,58,46,37,-100,-100,-100,0,0,100,0.00,40.00,0,-999,0,0.00
2013-12-14,62,54,46,-100,-100,-100,0,0,100,0.00,40.00,0,-999,0,0.00
2013-12-15,52,45,35,-100,-100,-100,0,0,100,0.00,40.00,0,-999,0,0.00
2013-12-16,63,47,32,-100,-100,-100,0,0,100,0.00,40.00,0,-999,0,0.00
2013-12-17,70,50,35,-100,-100,-100,0,0,100,0.00,40.00,0,-999,0,0.00
2013-12-18,69,52,38,-100,-100,-100,0,0,100,0.00,40.00,0,-999,0,0.00
2013-12-19,73,61,45,-100,-100,-100,0,0,100,0.00,40.00,0,-999,0,0.00
2013-12-20,77,71,68,-100,-100,-100,0,0,100,0.00,40.00,0,-999,0,0.00
2013-12-21,74,71,62,-100,-100,-100,0,0,100,0.00,40.00,0,-999,0,0.00
2013-12-22,63,56,44,-100,-100,-100,0,0,100,0.00,40.00,0,-999,0,0.00
2013-12-23,55,44,34,-100,-100,-100,0,0,100,0.00,40.00,0,-999,0,0.00
2013-12-24,54,38,30,-100,-100,-100,0,0,100,0.00,40.00,0,-999,0,0.00
2013-12-25,58,41,32,-100,-100,-100,0,0,100,0.00,40.00,0,-999,0,0.00
2013-12-26,65,50,39,-100,-100,-100,0,0,100,0.00,40.00,0,-999,0,0.00
2013-12-27,59,48,40,-100,-100,-100,0,0,100,0.00,40.00,0,-999,0,0.00
2013-12-28,56,48,43,-100,-100,-100,0,0,100,0.00,40.00,0,-999,0,0.00
2013-12-29,63,48,36,-100,-100,-100,0,0,100,0.00,40.00,0,-999,0,0.00
2013-12-30,53,48,45,-100,-100,-100,0,0,100,0.00,40.00,0,-999,0,0.00
2013-12-31,51,47,43,-100,-100,-100,0,0,100,0.00,40.00,0,-999,0,0.00
2014-1-1,65,53,41,-100,-100,-100,0,0,100,0.00,40.00,0,-999,0,0.00
2014-1-2,59,52,41,-100,-100,-100,0,0,100,0.00,40.00,0,-999,0,0.00